Miscellaneous Local Product
Issued by NWS Hastings, NE

Home | Current Version | Previous Version | Graphics & Text | Print | Product List | Glossary On
Versions: 1 2 3 4 5 6 7 8 9 10 11 12 13 14 15 16 17 18 19 20 21 22 23 24 25 26 27 28 29 30 31 32 33 34 35 36 37 38 39 40 41 42 43 44 45 46 47 48 49 50
000
AXUS43 KGID 060902
MISGRI

GID CWA HOURLY WEATHER ROUNDUP
NATIONAL WEATHER SERVICE HASTINGS NE
300 AM CST FRI MAR 06 2015

NOTE: "FAIR" INDICATES FEW OR NO CLOUDS BELOW 12,000 FEET WITH NO
SIGNIFICANT WEATHER AND/OR OBSTRUCTIONS TO VISIBILITY.

...SOUTH CENTRAL NEBRASKA...

CITY           SKY/WX    TMP DP  RH WIND       PRES   REMARKS
GRAND ISLAND   CLEAR     25  11  55 W10       30.20S WCI  15
HASTINGS       CLEAR     27  12  53 W7        30.20R WCI  19
KEARNEY        CLEAR     28  10  47 W6        30.21S WCI  22
ORD            CLEAR     13   5  70 N5        30.17F WCI   5
YORK           CLEAR     21  10  63 SW8       30.19F WCI  12
AURORA         CLEAR     24  12  58 W7        30.19S WCI  16
LEXINGTON      CLEAR     22  15  74 W10       30.22S WCI  11
HOLDREGE       CLEAR     27  13  54 W9        30.22S WCI  18
HEBRON         CLEAR     29  13  50 SW13      30.23S WCI  19

...NEBRASKA PANHANDLE...

CITY           SKY/WX    TMP DP  RH WIND       PRES   REMARKS
CHADRON        CLOUDY    33  23  66 SW13      30.20R WCI  24
ALLIANCE       MOCLDY    21  17  84 CALM      30.19R
SCOTTSBLUFF    PTCLDY    28  21  75 NW3       30.22S
SIDNEY         MOCLDY    31  18  58 W13       30.22S WCI  21

...WESTERN AND NORTH CENTRAL NEBRASKA...

CITY           SKY/WX    TMP DP  RH WIND       PRES   REMARKS
VALENTINE      PTCLDY    25  19  78 W10       30.15S WCI  15
AINSWORTH      CLEAR     26  19  76 W9        30.15S WCI  16
ONEILL         CLEAR     26  18  71 W7        30.15R WCI  18
BROKEN BOW     CLEAR     28  14  55 N5        30.18F WCI  23
IMPERIAL         N/A     25  16  68 W9        30.23S WCI  15
NORTH PLATTE   CLEAR     18  12  77 NW6       30.21S WCI  10
MCCOOK         CLEAR     28  18  66 W15       30.25S WCI  16

...EASTERN NEBRASKA...

CITY           SKY/WX    TMP DP  RH WIND       PRES   REMARKS
NORFOLK        CLEAR     23   8  52 W8        30.14F WCI  14
SO SIOUX CITY  CLEAR     23  10  57 S8        30.17F WCI  14
TEKAMAH        CLEAR     21  11  65 S13       30.20F WCI   9
COLUMBUS       CLEAR     25   7  46 SW6       30.19F WCI  18
ALBION         PTCLDY    23   8  53 NW5       30.16F WCI  17
OMAHA EPPLEY   PTCLDY    24  13  62 S13       30.23F WCI  12
OFFUTT AFB     CLEAR     22  13  67 SE6       30.22F WCI  14
MILLARD        CLEAR     25  14  61 S6        30.23F WCI  18
LINCOLN        CLEAR     26  15  63 S7        30.22F WCI  18
NEBRASKA CITY  PTCLDY    25  11  57 S15       30.22F WCI  12
BEATRICE       CLEAR     27  17  67 SW7       30.23F WCI  19
FALLS CITY     PTCLDY    25  15  66 S10       30.28F WCI  15

...NORTHERN KANSAS...

CITY           SKY/WX    TMP DP  RH WIND       PRES   REMARKS
GOODLAND       CLEAR     27  21  78 W9        30.26S WCI  18
HILL CITY      CLEAR     26  15  63 W8        30.26F WCI  18
NORTON         SUNNY     25  16  68 W9        30.23F WCI  15
PHILLIPSBURG   CLEAR     30  18  59 W9        30.25S WCI  22
SMITH CENTER   CLEAR     23  12  63 SW6       30.26F WCI  16
BELOIT         CLEAR     27  14  59 S6        30.28F WCI  20
HAYS           CLEAR     25   9  50 W5        30.29S WCI  19
RUSSELL        CLEAR     24  16  71 SW10      30.27F WCI  14
CONCORDIA      CLEAR     29  18  63 W10       30.27R WCI  20
SALINA         CLEAR     30  21  69 S12       30.31F WCI  20
TOPEKA         CLEAR     28  18  66 S6        30.35F WCI  22



USA.gov is the U.S. government's official web portal to all federal, state and local government web resources and services.